Theta_e
322 320 319 321 320 320 330 332 336 349 352 350 354 352 351 351 351 349 348 346 347 346 347 347 347 350 348 348 347 346 345 346
324 322 319 319 320 326 324 340 340 348 356 354 357 356 352 350 349 347 345 345 346 346 347 347 346 348 351 349 347 346 346 346
325 323 321 323 326 323 322 327 336 347 350 351 352 351 352 347 348 345 346 346 344 346 346 345 346 346 349 351 350 349 348 348
324 324 324 321 322 323 326 329 339 343 349 345 347 346 346 346 345 345 345 347 345 345 346 345 345 347 349 350 350 350 349 349
324 323 321 323 321 322 320 322 345 348 346 345 345 344 345 344 341 343 343 343 346 346 346 346 346 346 346 346 346 346 347 349
325 324 321 324 325 322 319 324 335 340 352 347 346 345 345 345 342 340 342 341 340 341 343 343 344 346 345 344 346 345 343 344
321 321 322 324 325 320 321 325 337 344 349 348 344 343 344 342 340 340 340 339 339 339 339 340 341 342 345 345 345 344 343 343
325 325 322 321 320 321 336 345 345 345 348 343 339 340 341 337 336 338 337 337 337 336 337 338 338 339 342 342 343 343 343 342
327 324 322 319 319 318 335 344 344 346 342 338 340 340 338 334 332 333 332 332 333 334 335 334 335 336 336 338 340 340 340 340
327 324 326 319 320 323 345 344 341 340 339 339 338 336 333 330 328 327 326 323 322 323 330 332 333 333 332 332 331 332 333 333
329 327 323 321 320 322 322 345 340 339 337 333 327 326 324 325 324 323 321 320 319 322 325 324 323 322 322 322 323 323 323 323
328 331 332 324 323 323 329 345 339 337 330 327 327 329 324 320 320 320 318 318 320 321 321 321 320 320 319 318 319 318 319 319
326 327 328 324 323 321 327 333 331 330 328 327 326 322 318 315 318 317 317 318 319 320 318 318 318 319 316 315 314 314 315 317
316 321 326 321 322 321 320 323 328 327 326 323 321 319 316 314 316 317 316 315 316 314 314 315 316 316 313 312 311 312 312 313
321 322 319 318 318 317 319 320 321 322 323 321 320 317 315 316 317 316 314 313 313 313 312 311 312 313 311 309 309 309 310 310
319 320 319 317 316 315 319 318 319 320 321 320 319 318 316 313 313 314 313 312 312 311 310 308 309 309 308 308 308 307 306 307
316 318 318 317 315 315 314 315 317 317 319 319 317 316 314 312 312 312 312 312 311 310 309 307 307 307 306 306 306 306 306 305
317 315 313 315 315 315 314 314 313 314 313 313 314 312 312 310 311 311 311 311 309 309 308 307 306 306 305 305 305 304 303 302
315 315 314 314 312 313 313 312 311 312 313 313 313 312 312 310 311 311 311 311 310 310 309 307 306 306 305 304 304 304 302 302
Wind_Speed
2 5 9 4 4 9 5 2 4 2 4 2 5 8 10 11 13 10 8 9 15 13 17 15 18 23 31 34 34 32 27 24
5 2 3 8 6 4 3 5 4 1 2 3 2 4 8 10 10 7 8 8 9 11 11 10 8 18 24 25 23 27 25 25
2 1 4 1 2 5 5 5 5 3 5 1 6 7 9 10 8 7 7 5 9 12 13 11 4 6 17 20 20 22 24 23
7 7 2 5 9 7 5 3 1 3 5 2 8 6 9 10 8 7 7 4 7 19 21 16 10 5 12 14 14 15 17 22
8 6 7 6 5 3 4 4 6 6 4 4 5 5 4 9 8 7 6 6 8 13 17 22 24 24 14 7 9 6 3 8
5 4 3 6 7 7 3 4 6 4 7 9 10 9 8 9 7 7 7 6 6 7 11 12 15 17 18 13 12 9 1 11
4 5 2 6 8 7 6 5 6 10 13 17 12 13 10 10 9 8 8 7 5 6 8 12 12 13 17 16 15 12 9 2
3 7 7 3 7 10 4 8 8 12 5 6 8 11 11 9 9 10 8 8 6 6 9 12 12 15 14 14 11 9 11 7
3 7 6 4 9 6 4 1 16 9 7 11 13 13 12 11 9 12 11 9 8 7 8 12 14 18 20 17 13 11 11 7
1 5 3 4 5 6 4 7 6 13 15 14 13 10 10 11 14 12 12 10 9 12 16 19 21 24 25 24 23 21 18 14
4 1 5 5 6 4 5 6 6 16 17 14 15 17 9 10 11 14 11 16 18 21 22 23 25 25 26 26 25 23 21 18
3 3 2 5 8 12 1 2 3 15 17 21 18 9 6 10 12 15 19 21 24 26 28 27 22 22 23 22 21 20 16 15
7 3 5 10 6 7 0 5 3 5 12 14 4 3 9 9 13 21 22 25 29 28 27 22 19 17 21 18 17 13 10 10
1 3 3 7 8 5 4 1 7 5 4 5 10 14 9 10 13 20 21 20 27 27 23 19 16 14 16 15 10 7 7 9
3 4 4 5 3 4 1 6 5 8 6 10 14 10 10 10 12 19 21 21 25 28 23 17 15 11 13 10 7 8 8 10
4 4 4 3 5 7 8 7 7 9 11 11 13 10 10 9 12 15 18 22 23 22 21 17 14 12 12 9 7 10 13 13
3 4 5 7 5 4 7 7 10 6 9 11 12 10 10 8 13 17 22 24 22 22 19 17 13 13 11 11 11 12 13 13
3 3 4 4 4 3 7 6 8 11 7 7 12 9 13 11 17 21 22 21 19 19 20 16 13 12 11 10 11 13 13 12
2 3 1 3 6 5 2 7 5 9 12 9 10 19 16 14 20 20 18 17 15 14 14 13 11 11 10 10 8 11 13 12
Wind_Direction
174 211 147 193 144 200 132 28 97 205 297 300 41 57 98 123 143 160 138 150 146 153 147 166 187 193 199 203 200 203 207 206
286 168 222 163 172 87 5 137 175 280 304 253 83 113 102 93 101 96 101 110 144 151 127 110 156 196 208 211 208 211 214 216
332 160 193 39 174 47 118 127 150 159 250 165 179 155 120 118 114 118 112 132 151 153 146 126 116 176 201 208 210 223 222 228
223 259 298 213 201 158 130 206 47 118 259 98 126 131 127 127 132 109 100 142 183 161 150 169 178 189 175 179 191 210 229 233
342 356 9 30 347 30 108 97 178 143 239 135 117 108 107 136 131 122 118 106 134 153 162 166 172 182 140 125 142 154 192 222
169 221 226 303 315 313 147 130 155 192 153 188 170 159 139 120 118 122 105 93 102 113 133 139 151 165 170 188 177 163 50 37
228 237 281 267 280 299 233 166 160 185 175 194 168 153 137 126 124 115 102 97 79 105 104 115 125 148 157 171 184 200 198 273
354 335 352 277 346 347 137 98 64 134 133 135 129 123 134 132 124 112 105 103 102 92 104 105 115 120 140 154 165 189 204 213
247 332 337 2 344 303 266 125 139 166 187 143 143 156 139 129 123 121 110 104 102 104 94 93 93 101 97 108 120 127 137 148
222 354 71 242 351 312 115 89 108 110 131 137 136 126 125 132 129 116 110 98 84 83 87 87 93 89 94 95 93 90 85 83
105 35 291 317 8 357 348 25 142 128 128 130 120 105 63 109 115 115 107 96 88 96 96 92 95 100 95 88 84 80 72 68
81 83 313 261 329 357 245 63 99 138 142 141 142 126 159 143 123 110 108 106 102 102 106 105 103 102 92 79 73 63 59 59
136 136 238 270 329 342 184 225 101 137 152 149 114 130 137 130 124 123 117 113 117 115 110 111 109 104 88 82 69 63 58 59
220 119 186 353 328 145 197 29 129 122 171 116 126 126 130 117 119 120 117 115 117 112 113 113 108 104 95 82 70 58 56 63
135 202 282 307 332 47 235 153 143 125 147 138 138 131 126 130 131 132 125 123 125 123 118 111 107 100 99 88 82 83 79 69
66 325 327 47 50 65 86 70 77 118 139 148 139 138 134 124 125 124 128 129 132 126 119 112 105 101 103 102 94 88 81 75
52 11 353 8 11 71 68 94 104 82 132 143 140 147 139 130 132 138 140 145 147 140 135 127 116 105 102 106 108 94 86 80
197 228 176 245 309 350 115 119 130 121 101 94 143 140 143 143 147 146 147 151 145 141 138 134 124 115 103 100 105 103 92 74
157 237 168 60 78 14 141 149 142 132 141 135 143 150 152 145 160 156 154 156 153 148 143 139 128 124 120 112 101 104 101 95